Showing default

OPS 9345 (IDSCS 23), 3288

Orbit data source: Space-Track

OPS 9345 (IDSCS 23), 3288 is a payload satellite owned by SAMSO (US) in GEO that was launched on Thu, 13 Jun 1968 UTC via a TITAN IIIC launch vehicle from the Air Force Eastern Test Range (AFETR). Payload-class satellites include a variety of spacecraft equipped with specific instruments for various scientific and technological missions. These include communications satellites like Starlink; space stations such as the ISS; scientific satellites like the Hubble; Earth observation satellites from companies like Planet Labs, Umbra, and HawkEye 360; GPS; miniature CubeSats for education and research; and military/defense satellites.

Not visible in the next 10 days
Identifier
3288, 1968-050E
Orbit
GEO
Country
Flag of USUS
Related business
Manufacturer
Philco-Ford
Mission
Non-operational spacecraft
Bus & Motor
IDCSP, Unknown motor
Mass
45 kg wet, 45 kg dry
Launch date (UTC)
1968-06-13 (58 years ago)
Launch vehicle
TITAN IIIC
Launch site
Air Force Eastern Test Range (AFETR)
Object type
Payload
Rocket body
Debris
Shape & HBR
Unknown
Radar Cross Section
Medium (>0.1 m² and <1 m²)

Expand to show TLE details & history
Last TLE update: 18 hours ago

TLE from 18 hours ago
0 OPS 9345 (IDSCS 23)
1 03288U 68050E   26174.82357646 -.00000110  00000-0  00000-0 0  9994
2 03288   7.1165  52.7385 0034736 143.2867  60.2699  1.07478938139313
Epoch: 2026-06-23T19:45Z
TLE epoch observation values (Epoch: 2026-06-23T19:45:57.006Z)
Latitude
-2.89695°
Longitude
48.01167°
Altitude
33,810.843 km
Speed
3.152 km/s
True Right ascension
17h 05m 57s
True Declination
-2° 53' 38"
Sunlit
Object was in daylight at epoch
Visualization orbit readout
Latitude
Unknown
Longitude
Unknown
Altitude
Unknown
Speed
Unknown
Apparent Right ascension
Unknown
Apparent Declination
Unknown
Sunlit
N/A
Visualization observer readout
Local Sidereal Time
00:46:31
Azimuth
Unknown
Elevation
Unknown
Doppler factor
Unknown
Orbital elements
Apogee altitude
34,020.869 km
Perigee altitude
33,741.18 km
Semi-major axis
40,259.162 km
Eccentricity
0.00347
Inclination
7.1165°
RAAN
52.7385°
Arg. of periapsis
143.2867°
True anomaly
60.61629°
Mean anomaly
60.2699°
Eccentric anomaly
60.44302°
Mean motion
0.26869 °/min
Orbital period
1,339.85 mins
BSTAR
0
Loading maneuver chart data...
Computing Atmospheric mass density...
Loading historical data...
Loading historical data...
Loading historical data...
Loading historical data...
Loading historical data...
Loading historical data...
Loading historical data...

Documentation

Showing up to 5 results
|